This is the latest recevied weather packets stored in our database for station/object DL1NER. If no packets are shown the sender has not sent any weather packets the latest 10 day(s).
| Time | Temp. | Humidity | Pressure | Rain* | Wind** | Luminosity | Snow |
|---|---|---|---|---|---|---|---|
| 1777587070 | 7.22° C | 47% | 1028.6 hPa | 0 mm | - | 0 W/m² | - |
| 1777586408 | 7.78° C | 47% | 1028.6 hPa | 0 mm | - | 0 W/m² | - |
| 1777585813 | 7.78° C | 47% | 1028.6 hPa | 0 mm | - | 0 W/m² | - |
| 1777585213 | 8.33° C | 49% | 1028.4 hPa | 0 mm | - | 0 W/m² | - |
| 1777584613 | 8.33° C | 46% | 1028.4 hPa | 0 mm | - | 0 W/m² | - |
| 1777584013 | 8.33° C | 47% | 1028.3 hPa | 0 mm | - | 0 W/m² | - |
| 1777583413 | 8.33° C | 48% | 1028.4 hPa | 0 mm | - | 0 W/m² | - |
| 1777582813 | 8.33° C | 45% | 1028.4 hPa | 0 mm | - | 0 W/m² | - |
| 1777582213 | 8.33° C | 48% | 1028.4 hPa | 0 mm | - | 0 W/m² | - |
| 1777581613 | 8.33° C | 44% | 1028.3 hPa | 0 mm | - | 0 W/m² | - |
| 1777581013 | 8.89° C | 44% | 1028.4 hPa | 0 mm | - | 0 W/m² | - |
| 1777580413 | 9.44° C | 44% | 1028.4 hPa | 0 mm | - | 0 W/m² | - |
| 1777579813 | 9.44° C | 41% | 1028.4 hPa | 0 mm | - | 0 W/m² | - |
| 1777579213 | 9.44° C | 40% | 1028.5 hPa | 0 mm | - | 0 W/m² | - |
| 1777578613 | 10° C | 39% | 1028.4 hPa | 0 mm | - | 0 W/m² | - |
| 1777578013 | 10.56° C | 39% | 1028.4 hPa | 0 mm | - | 0 W/m² | - |
| 1777577413 | 10.56° C | 37% | 1028.3 hPa | 0 mm | - | 0 W/m² | - |
| 1777576813 | 11.67° C | 36% | 1028.1 hPa | 0 mm | - | 0 W/m² | - |
| 1777576213 | 12.22° C | 35% | 1028.1 hPa | 0 mm | - | 0 W/m² | - |
| 1777575613 | 12.22° C | 32% | 1027.9 hPa | 0 mm | - | 0 W/m² | - |
| 1777575013 | 12.78° C | 31% | 1027.7 hPa | 0 mm | - | 0 W/m² | - |
| 1777574412 | 13.33° C | 30% | 1027.6 hPa | 0 mm | - | 0 W/m² | - |
| 1777573812 | 13.33° C | 30% | 1027.5 hPa | 0 mm | - | 0 W/m² | - |
| 1777573212 | 13.89° C | 29% | 1027.4 hPa | 0 mm | - | 0 W/m² | - |
| 1777572612 | 14.44° C | 28% | 1027.4 hPa | 0 mm | - | 0 W/m² | - |
* Rain latest hour (hover to see other rain measurements)
** Current wind speed in m/s (hover to see current wind gust speed)